Weather History for Gunnison, CO

Change the Weather History Date:

Thursday, October 18, 2012

  Actual Average Record
Temperature  
Mean Temperature 39 °F -  
Max Temperature 57 °F 55 °F 71 °F (2003)
Min Temperature 21 °F 21 °F 12 °F (1996)
Degree Days  
Heating Degree Days 26    
Moisture  
Dew Point 12 °F    
Average Humidity 34    
Maximum Humidity 63    
Minimum Humidity 17    
Precipitation  
Precipitation 0.00 in - - ()
Sea Level Pressure  
Sea Level Pressure 30.28 in    
Wind  
Wind Speed 6 mph (West)    
Max Wind Speed 22 mph    
Max Gust Speed 28 mph    
Visibility 10 miles    
Events      
Averages and records for this station are not official NWS values.
T = Trace of Precipitation, MM = Missing Value Source: NWS Daily Summary

Daily Weather History Graph

Daily Weather History Graph

Search for Another Location

Airport:

Trip Planner

Search our weather history database for the weather conditions in past years. The results will help you decide how hot, cold, wet, or windy it might be!

Date:

Astronomy

Oct. 18, 2012 Rise Set
Actual Time 7:20 AM MDT 6:24 PM MDT
Civil Twilight 6:53 AM MDT 6:51 PM MDT
Nautical Twilight 6:22 AM MDT 7:22 PM MDT
Astronomical Twilight 5:51 AM MDT 7:52 PM MDT
Moon 11:02 AM MDT (10/18) 9:04 PM MDT (10/18)
Length of Visible Light 11h 57m
Length of Day
11h 04m
Waxing Crescent, 15% of the Moon is Illuminated
Oct 18
Waxing Crescent
Oct 21
First Quarter
Oct 29
Full
Nov 6
Last Quarter
Nov 13
New

Hourly Weather History & Observations

Time (MDT) Temp. Windchill Dew Point Humidity Pressure Visibility Wind Dir Wind Speed Gust Speed Precip Events Conditions
12:15 AM 30.2 °F 25.4 °F 5.0 °F 34% 30.22 in 10.0 mi NNE 4.6 mph - N/A   Clear
12:35 AM 30.2 °F 24.3 °F 6.8 °F 37% 30.22 in 10.0 mi North 5.8 mph - N/A   Clear
12:55 AM 30.2 °F 25.4 °F 5.0 °F 34% 30.23 in 10.0 mi NW 4.6 mph - N/A   Clear
1:15 AM 30.2 °F - 6.8 °F 37% 30.23 in 10.0 mi Calm Calm - N/A   Clear
1:35 AM 28.4 °F 24.6 °F 6.8 °F 40% 30.24 in 10.0 mi North 3.5 mph - N/A   Clear
1:55 AM 28.4 °F - 6.8 °F 40% 30.24 in 10.0 mi Calm Calm - N/A   Clear
2:15 AM 26.6 °F 21.2 °F 6.8 °F 43% 30.25 in 10.0 mi North 4.6 mph - N/A   Clear
2:35 AM 26.6 °F 20.0 °F 6.8 °F 43% 30.25 in 10.0 mi NNE 5.8 mph - N/A   Clear
2:55 AM 26.6 °F 21.2 °F 6.8 °F 43% 30.26 in 10.0 mi North 4.6 mph - N/A   Clear
3:15 AM 26.6 °F - 8.6 °F 47% 30.26 in 10.0 mi Calm Calm - N/A   Clear
3:35 AM 26.6 °F 18.2 °F 6.8 °F 43% 30.26 in 10.0 mi North 8.1 mph - N/A   Clear
3:55 AM 24.8 °F - 8.6 °F 50% 30.27 in 10.0 mi Calm Calm - N/A   Clear
4:15 AM 24.8 °F - 8.6 °F 50% 30.27 in 10.0 mi Calm Calm - N/A   Clear
4:35 AM 26.6 °F - 8.6 °F 47% 30.27 in 10.0 mi Calm Calm - N/A   Clear
4:55 AM 26.6 °F - 6.8 °F 43% 30.28 in 10.0 mi Calm Calm - N/A   Clear
5:35 AM 24.8 °F 19.1 °F 6.8 °F 46% 30.28 in 10.0 mi NNW 4.6 mph - N/A   Clear
5:55 AM 23.0 °F - 8.6 °F 54% 30.29 in 10.0 mi Calm Calm - N/A   Clear
6:15 AM 23.0 °F - 10.4 °F 59% 30.29 in 10.0 mi Calm Calm - N/A   Clear
6:35 AM 23.0 °F - 12.2 °F 63% 30.29 in 10.0 mi Calm Calm - N/A   Clear
6:55 AM 23.0 °F 18.4 °F 10.4 °F 59% 30.30 in 10.0 mi North 3.5 mph - N/A   Clear
7:15 AM 23.0 °F - 8.6 °F 54% 30.30 in 10.0 mi Calm Calm - N/A   Clear
7:35 AM 21.2 °F 16.4 °F 6.8 °F 54% 30.30 in 10.0 mi SSW 3.5 mph - N/A   Clear
7:55 AM 21.2 °F - 10.4 °F 63% 30.30 in 10.0 mi Calm Calm - N/A   Clear
8:15 AM 24.8 °F - 12.2 °F 59% 30.31 in 10.0 mi Calm Calm - N/A   Clear
8:35 AM 28.4 °F - 12.2 °F 51% 30.31 in 10.0 mi Calm Calm - N/A   Clear
8:55 AM 30.2 °F 26.7 °F 12.2 °F 47% 30.32 in 10.0 mi North 3.5 mph - N/A   Clear
9:15 AM 35.6 °F - 12.2 °F 38% 30.32 in 10.0 mi Calm Calm - N/A   Clear
9:35 AM 39.2 °F - 12.2 °F 33% 30.32 in 10.0 mi Calm Calm - N/A   Clear
9:55 AM 39.2 °F 37.0 °F 12.2 °F 33% 30.32 in 10.0 mi South 3.5 mph - N/A   Clear
10:15 AM 42.8 °F 39.3 °F 14.0 °F 31% 30.31 in 10.0 mi WSW 5.8 mph - N/A   Clear
10:35 AM 46.4 °F 42.4 °F 12.2 °F 25% 30.30 in 10.0 mi West 8.1 mph - N/A   Clear
10:55 AM 48.2 °F - 14.0 °F 25% 30.29 in 10.0 mi WSW 11.5 mph 17.3 mph N/A   Clear
11:15 AM 50.0 °F - 12.2 °F 22% 30.29 in 10.0 mi WSW 15.0 mph - N/A   Clear
11:35 AM 51.8 °F - 12.2 °F 21% 30.28 in 10.0 mi SW 13.8 mph 19.6 mph N/A   Clear
11:55 AM 51.8 °F - 12.2 °F 21% 30.27 in 10.0 mi SW 15.0 mph - N/A   Clear
12:15 PM 53.6 °F - 12.2 °F 19% 30.27 in 10.0 mi WSW 13.8 mph 23.0 mph N/A   Clear
12:35 PM 55.4 °F - 12.2 °F 18% 30.27 in 10.0 mi West 15.0 mph 20.7 mph N/A   Clear
1:15 PM 57.2 °F - 14.0 °F 18% 30.26 in 10.0 mi WSW 17.3 mph 25.3 mph N/A   Clear
1:35 PM 57.2 °F - 12.2 °F 17% 30.25 in 10.0 mi SSW 12.7 mph 27.6 mph N/A   Clear
1:55 PM 57.2 °F - 14.0 °F 18% 30.25 in 10.0 mi WNW 11.5 mph 27.6 mph N/A   Clear
2:15 PM 57.2 °F - 14.0 °F 18% 30.25 in 10.0 mi WSW 9.2 mph 21.9 mph N/A   Clear
2:35 PM 57.2 °F - 15.8 °F 20% 30.24 in 10.0 mi WSW 15.0 mph 25.3 mph N/A   Clear
2:55 PM 57.2 °F - 14.0 °F 18% 30.24 in 10.0 mi WSW 12.7 mph 25.3 mph N/A   Clear
3:15 PM 57.2 °F - 14.0 °F 18% 30.24 in 10.0 mi WSW 17.3 mph 26.5 mph N/A   Clear
3:35 PM 57.2 °F - 14.0 °F 18% 30.24 in 10.0 mi SW 17.3 mph 27.6 mph N/A   Clear
3:55 PM 57.2 °F - 14.0 °F 18% 30.23 in 10.0 mi SW 20.7 mph 27.6 mph N/A   Clear
4:15 PM 57.2 °F - 14.0 °F 18% 30.22 in 10.0 mi SW 21.9 mph 26.5 mph N/A   Clear
4:35 PM 55.4 °F - 14.0 °F 20% 30.23 in 10.0 mi WSW 16.1 mph 23.0 mph N/A   Clear
4:55 PM 55.4 °F - 14.0 °F 20% 30.24 in 10.0 mi SW 13.8 mph 26.5 mph N/A   Clear
5:35 PM 55.4 °F - 14.0 °F 20% 30.25 in 10.0 mi WSW 16.1 mph 26.5 mph N/A   Clear
5:55 PM 53.6 °F - 14.0 °F 21% 30.26 in 10.0 mi SW 15.0 mph 25.3 mph N/A   Clear
6:15 PM 51.8 °F - 14.0 °F 22% 30.27 in 10.0 mi SW 13.8 mph 21.9 mph N/A   Clear
6:35 PM 51.8 °F - 12.2 °F 21% 30.27 in 10.0 mi WSW 15.0 mph - N/A   Clear
6:55 PM 50.0 °F - 14.0 °F 24% 30.28 in 10.0 mi WSW 12.7 mph 18.4 mph N/A   Clear
7:15 PM 48.2 °F - 14.0 °F 25% 30.29 in 10.0 mi WSW 11.5 mph - N/A   Clear
7:35 PM 48.2 °F - 14.0 °F 25% 30.30 in 10.0 mi West 5.8 mph - N/A   Clear
7:55 PM 46.4 °F 41.1 °F 14.0 °F 27% 30.30 in 10.0 mi WSW 11.5 mph - N/A   Clear
8:15 PM 46.4 °F 41.9 °F 14.0 °F 27% 30.30 in 10.0 mi West 9.2 mph - N/A   Clear
8:35 PM 44.6 °F 40.2 °F 14.0 °F 29% 30.30 in 10.0 mi West 8.1 mph - N/A   Clear
8:55 PM 44.6 °F - 14.0 °F 29% 30.31 in 10.0 mi Calm Calm - N/A   Clear
9:35 PM 42.8 °F 41.1 °F 15.8 °F 34% 30.32 in 10.0 mi SW 3.5 mph - N/A   Clear
9:55 PM 42.8 °F - 15.8 °F 34% 30.32 in 10.0 mi Calm Calm - N/A   Clear
10:15 PM 39.2 °F 35.0 °F 12.2 °F 33% 30.32 in 10.0 mi North 5.8 mph - N/A   Clear
10:35 PM 37.4 °F 32.8 °F 14.0 °F 38% 30.32 in 10.0 mi NNW 5.8 mph - N/A   Clear
11:15 PM 35.6 °F 29.2 °F 12.2 °F 38% 30.32 in 10.0 mi NNW 8.1 mph - N/A   Clear
11:35 PM 33.8 °F 29.6 °F 14.0 °F 44% 30.32 in 10.0 mi NNE 4.6 mph - N/A   Clear
11:55 PM 33.8 °F - 14.0 °F 44% 30.33 in 10.0 mi Calm Calm - N/A   Clear